Wind_Speed
8 8 9 9 9 9 11 12 12 13 12 13 14 14 14 16 18 19 21 22 23 23 24 25 25 26 27 28 28 29 30 31 31 32 32 32 32 32 32 33 33 34 34
10 10 11 11 11 11 12 13 13 14 14 14 14 14 14 15 17 19 21 23 24 25 26 27 28 29 30 31 32 32 33 34 34 35 36 36 36 36 37 37 37 37 37
13 14 14 14 14 14 14 14 15 16 16 16 16 15 14 15 17 20 22 23 25 27 28 29 30 32 33 33 34 35 36 36 37 37 38 39 40 41 41 41 41 41 41
16 17 17 17 17 17 17 16 16 17 17 18 18 17 17 17 18 19 21 24 26 27 29 30 31 33 34 36 37 37 38 39 40 40 40 41 42 43 44 45 45 46 46
20 20 21 21 20 19 18 18 18 18 18 19 19 19 19 19 19 19 21 23 24 25 27 30 32 33 35 36 37 38 39 40 41 42 42 43 44 45 46 47 48 49 50
23 23 23 24 22 22 21 21 20 20 20 21 21 21 21 21 21 21 22 23 24 26 27 29 31 33 34 36 37 38 40 41 42 44 44 46 47 48 49 50 51 52 53
24 25 24 23 23 25 24 22 22 22 23 23 24 24 25 25 25 26 26 27 28 29 30 31 33 34 36 37 38 40 42 43 45 46 47 49 50 51 53 54 55 57 58
26 26 25 25 25 25 26 25 25 24 25 25 26 27 28 28 29 31 31 32 33 34 35 36 37 38 40 41 43 44 46 47 49 51 52 53 55 56 57 59 60 62 63
26 26 27 27 26 26 26 26 27 27 27 28 29 30 31 32 33 34 36 37 38 39 40 41 42 43 44 45 47 49 50 52 54 56 57 59 60 61 63 64 65 67 68
29 29 28 28 29 29 28 28 29 29 29 30 31 33 34 35 37 38 39 40 42 43 44 46 47 48 50 51 53 54 56 58 59 61 62 64 66 67 68 69 70 72 73
31 30 30 30 29 30 30 30 30 31 31 32 33 35 36 38 39 41 42 44 45 47 48 50 51 52 54 56 58 59 61 63 65 66 67 69 71 72 73 74 75 76 77
31 31 30 31 31 31 31 32 32 33 34 35 36 37 39 40 41 43 45 47 49 50 52 53 54 56 58 59 61 63 64 66 68 69 71 72 73 74 75 76 77 78 78
32 32 32 33 33 33 33 33 35 36 37 38 39 40 42 43 44 46 48 50 52 54 55 56 58 60 61 63 64 65 67 68 70 71 73 74 75 76 76 77 77 77 77
34 34 34 34 35 35 36 37 39 40 41 42 43 44 45 47 48 50 52 54 55 57 58 60 61 62 64 65 66 67 68 69 71 72 73 73 74 74 74 74 74 74 74
36 36 36 37 38 38 40 42 43 44 45 46 48 49 50 52 54 55 57 58 59 59 60 62 63 64 65 66 66 67 68 69 70 71 70 70 71 71 71 70 70 69 68
39 39 40 41 42 43 45 46 47 49 50 51 53 54 55 56 58 58 60 61 61 62 62 63 64 64 65 66 66 66 67 67 67 67 67 67 66 65 65 64 64 63 62
43 43 44 45 47 48 49 50 52 54 55 56 57 57 58 59 61 61 62 62 63 63 63 64 65 64 65 65 65 65 64 63 63 63 62 61 60 59 59 58 57 57 57
46 47 48 50 51 52 53 55 57 58 59 60 60 60 60 61 62 63 63 63 63 63 63 63 63 64 63 63 62 61 61 60 59 58 57 56 54 53 52 51 50 50 49
49 51 52 53 54 55 57 58 59 59 60 60 60 61 61 62 62 63 62 62 62 62 62 61 61 61 61 61 59 58 57 56 54 52 51 49 47 46 45 45 44 43 42
51 53 53 54 55 56 57 59 59 59 61 61 61 62 62 62 61 61 61 61 60 60 60 60 59 58 57 55 54 52 50 49 47 45 44 42 42 41 40 39 38 37 37
51 52 54 56 57 57 58 59 59 60 61 62 62 62 61 60 60 59 58 58 58 57 56 55 53 51 50 48 47 46 43 40 39 38 37 38 37 37 36 35 35 34 34
50 52 53 56 57 58 58 58 59 60 61 61 60 59 58 57 56 55 54 53 51 50 48 47 45 44 43 42 40 38 35 33 31 32 32 33 34 34 33 33 33 33 33
50 52 54 56 57 57 58 58 58 59 58 57 55 54 53 51 49 48 47 45 44 42 40 39 37 36 35 34 31 30 29 28 28 27 27 29 31 31 32 31 31 32 32
49 51 53 54 55 56 56 56 55 54 52 50 48 47 45 43 42 40 39 39 37 36 34 31 29 27 26 24 23 22 22 24 26 26 26 27 29 30 32 32 32 31 31
48 49 51 51 52 53 52 51 50 48 46 45 42 41 38 37 34 33 32 31 30 28 26 24 21 19 18 18 18 18 19 20 22 25 27 28 28 29 31 33 32 32 31
45 46 46 47 47 47 45 44 42 41 39 36 34 32 31 29 27 26 24 23 22 20 18 17 15 14 14 14 15 17 18 20 22 24 26 27 28 28 28 30 30 29 29
Wind_Direction
242 257 269 280 289 295 304 309 308 311 313 311 304 298 289 280 273 273 275 278 280 281 281 280 279 278 277 277 276 276 276 275 275 275 274 274 274 273 273 273 273 273 273
251 261 268 273 282 289 297 301 301 306 309 310 307 303 295 284 278 277 277 278 281 283 284 282 280 278 277 277 276 277 276 276 276 275 275 275 274 273 273 273 273 273 273
259 264 268 272 277 285 288 292 294 300 304 307 307 304 298 291 285 282 281 281 281 283 284 283 282 281 280 280 279 279 278 277 277 277 276 275 274 273 273 273 273 273 272
266 268 269 271 276 280 282 286 290 295 300 302 303 302 298 295 291 286 285 285 284 283 283 283 283 282 281 280 280 280 279 277 277 277 277 276 275 275 274 273 273 272 272
273 275 274 273 276 278 279 283 284 289 293 294 296 297 297 296 292 289 287 287 287 286 285 284 283 283 282 281 281 280 280 279 279 279 278 277 276 276 275 274 274 273 272
277 277 278 277 278 277 278 282 282 284 286 287 288 290 290 290 291 290 289 290 290 288 287 286 285 285 284 283 282 282 282 282 282 281 280 280 278 277 276 276 275 274 273
279 279 281 279 281 280 281 283 281 281 283 284 285 284 285 285 285 285 285 287 288 288 287 287 286 286 286 284 284 285 284 284 283 283 282 281 280 278 277 277 276 275 274
283 281 284 282 281 281 281 281 280 279 281 283 283 282 282 283 282 282 283 284 285 286 287 287 287 286 286 285 285 285 285 285 284 283 283 282 282 281 279 279 278 277 276
289 289 286 284 282 284 285 281 279 279 280 281 281 282 282 282 282 282 282 283 284 286 286 287 287 287 286 286 286 286 286 285 284 284 284 283 282 282 280 280 279 278 278
289 287 286 285 283 284 285 283 280 279 281 282 282 282 282 283 283 282 283 284 284 285 286 286 287 287 287 287 287 287 287 287 286 285 285 284 283 283 282 281 280 280 279
291 287 287 284 283 284 284 282 281 281 283 283 282 283 283 284 284 283 284 285 285 285 285 286 287 287 287 287 287 287 287 287 286 285 285 284 284 283 282 282 281 281 280
292 289 286 285 285 284 283 283 283 284 284 284 283 284 285 285 285 285 285 286 286 286 286 287 287 287 287 287 286 286 286 286 286 285 285 285 284 284 283 283 282 282 281
292 290 288 287 286 286 284 284 285 286 285 286 286 286 287 287 287 287 287 287 287 288 288 288 288 288 287 287 286 286 286 286 286 285 285 285 285 285 285 284 284 283 282
290 287 288 287 287 288 287 286 288 287 287 287 288 288 288 288 288 288 288 288 288 288 288 288 288 288 287 287 286 286 286 286 286 286 286 286 286 286 285 284 284 283 282
288 287 287 287 288 288 287 288 289 289 289 289 289 289 288 289 289 289 289 289 288 289 288 288 287 287 286 286 286 286 287 287 288 288 288 288 287 286 285 285 284 283 282
288 289 289 287 288 288 289 289 289 290 290 290 289 289 289 289 290 290 290 289 289 288 288 287 287 286 287 287 288 288 289 290 290 290 289 289 288 288 287 286 285 284 283
287 288 287 288 289 290 291 290 290 291 290 290 289 289 289 290 290 290 289 289 288 288 288 287 287 287 288 289 290 291 292 291 291 292 292 291 291 291 290 289 288 286 284
286 286 288 289 289 289 289 289 289 290 290 289 289 289 289 289 289 289 289 288 288 288 288 287 288 289 290 291 293 293 293 293 294 294 294 294 294 293 292 291 290 288 287
285 286 287 287 287 288 289 290 290 290 289 288 288 288 288 288 288 288 288 288 288 288 289 289 289 290 291 292 293 294 294 295 296 296 296 296 295 295 295 294 293 292 289
285 286 286 287 287 287 287 288 288 288 288 288 287 287 288 288 288 288 289 289 290 290 291 291 291 292 292 293 294 295 296 297 298 299 299 299 299 299 299 299 298 296 293
286 286 286 287 287 287 287 287 287 288 288 288 288 288 289 289 289 289 290 290 291 291 292 293 293 294 294 295 295 296 297 299 300 301 303 303 304 305 304 304 303 301 298
285 286 286 287 287 288 288 289 289 290 290 290 290 290 290 290 290 291 291 292 292 292 293 294 294 294 295 296 297 298 299 301 302 304 306 306 307 308 308 307 305 304 301
287 288 289 289 290 291 291 291 291 291 291 291 291 291 291 291 292 292 293 293 293 294 295 296 296 297 297 298 298 299 302 305 307 309 311 310 311 311 311 310 308 306 305
290 291 292 292 292 292 293 294 294 294 293 292 292 292 292 293 294 294 295 296 298 299 300 300 300 300 301 301 303 304 307 310 313 315 317 317 317 316 315 314 313 310 308
294 294 294 295 295 295 295 295 295 294 293 293 292 292 293 294 295 296 297 299 301 303 304 306 307 307 307 309 311 314 316 318 319 321 322 322 322 321 319 318 317 315 312
299 299 299 300 300 299 299 298 297 296 296 296 296 296 296 296 298 299 300 303 306 310 313 316 318 319 321 322 322 323 325 325 324 323 324 324 324 323 322 321 321 320 319
Height
5888 5887 5887 5885 5884 5883 5881 5880 5878 5877 5876 5875 5873 5872 5871 5870 5869 5869 5868 5868 5867 5867 5867 5866 5866 5866 5865 5864 5864 5863 5863 5862 5861 5861 5860 5860 5859 5859 5859 5858 5858 5858 5858
5886 5885 5884 5883 5882 5881 5879 5878 5876 5875 5873 5872 5870 5869 5868 5867 5866 5865 5864 5864 5863 5863 5862 5861 5861 5860 5859 5859 5858 5857 5856 5855 5855 5854 5853 5853 5852 5851 5851 5851 5850 5850 5850
5884 5883 5881 5880 5879 5878 5876 5875 5873 5872 5870 5868 5867 5865 5864 5863 5862 5861 5860 5859 5858 5858 5857 5856 5855 5854 5853 5852 5851 5850 5849 5848 5847 5846 5846 5845 5844 5843 5842 5842 5841 5841 5841
5880 5879 5878 5876 5875 5874 5872 5871 5870 5869 5867 5865 5864 5862 5861 5859 5858 5857 5856 5855 5854 5852 5851 5850 5849 5847 5846 5845 5844 5842 5841 5840 5839 5838 5837 5836 5835 5834 5833 5832 5831 5831 5831
5876 5875 5873 5872 5870 5869 5868 5867 5866 5865 5863 5862 5860 5859 5857 5855 5854 5852 5851 5850 5848 5847 5845 5844 5842 5840 5839 5837 5836 5834 5833 5831 5830 5829 5827 5826 5825 5824 5822 5821 5821 5820 5820
5870 5869 5867 5866 5865 5864 5863 5862 5861 5860 5859 5858 5856 5855 5853 5851 5849 5848 5846 5844 5843 5841 5839 5837 5835 5834 5832 5830 5828 5826 5824 5822 5821 5819 5817 5816 5814 5813 5811 5810 5809 5808 5807
5863 5863 5861 5860 5859 5858 5857 5856 5855 5854 5853 5852 5851 5849 5847 5846 5844 5842 5840 5839 5837 5835 5832 5830 5828 5826 5824 5822 5819 5817 5815 5813 5811 5808 5806 5804 5803 5801 5799 5797 5795 5794 5793
5857 5856 5854 5854 5853 5852 5851 5850 5849 5848 5847 5846 5844 5843 5841 5840 5837 5835 5833 5831 5829 5827 5824 5822 5820 5818 5815 5813 5810 5807 5805 5802 5800 5797 5794 5792 5790 5788 5785 5783 5781 5779 5777
5851 5850 5848 5847 5846 5846 5844 5843 5842 5841 5840 5839 5837 5836 5834 5832 5830 5828 5825 5823 5820 5818 5815 5813 5810 5808 5805 5802 5800 5797 5793 5790 5787 5784 5781 5778 5775 5773 5770 5768 5765 5763 5761
5844 5842 5841 5839 5838 5838 5837 5836 5835 5834 5832 5831 5829 5827 5826 5823 5821 5818 5816 5814 5811 5808 5806 5803 5800 5796 5793 5790 5787 5784 5780 5777 5773 5770 5766 5763 5759 5756 5753 5750 5747 5744 5742
5836 5834 5834 5832 5831 5830 5829 5828 5827 5825 5824 5822 5820 5818 5816 5814 5811 5809 5806 5803 5800 5798 5794 5791 5788 5784 5781 5777 5774 5770 5766 5762 5758 5754 5750 5746 5742 5738 5734 5731 5727 5724 5721
5828 5827 5825 5824 5823 5822 5821 5820 5818 5817 5815 5813 5811 5809 5806 5804 5801 5798 5795 5792 5788 5785 5782 5779 5775 5771 5767 5763 5759 5755 5750 5746 5741 5737 5732 5728 5723 5719 5715 5710 5706 5703 5699
5821 5820 5818 5816 5815 5813 5812 5811 5809 5807 5805 5803 5801 5799 5796 5793 5790 5787 5783 5779 5776 5772 5768 5765 5760 5756 5752 5748 5743 5738 5734 5729 5724 5719 5714 5709 5704 5699 5694 5690 5685 5681 5677
5813 5812 5810 5808 5806 5805 5803 5801 5799 5797 5795 5793 5790 5787 5784 5781 5778 5774 5770 5766 5762 5758 5754 5749 5745 5740 5735 5731 5726 5721 5716 5711 5706 5700 5695 5689 5684 5679 5673 5669 5664 5659 5655
5804 5802 5800 5798 5797 5795 5794 5792 5789 5787 5784 5781 5778 5775 5771 5768 5764 5760 5756 5752 5748 5744 5739 5733 5728 5722 5717 5713 5708 5703 5698 5693 5687 5681 5675 5669 5664 5658 5653 5648 5643 5638 5634
5794 5792 5791 5789 5787 5785 5783 5780 5777 5774 5771 5768 5764 5761 5757 5753 5749 5745 5741 5736 5732 5727 5723 5717 5711 5705 5699 5695 5690 5685 5680 5674 5668 5662 5656 5650 5644 5639 5633 5628 5623 5618 5614
5784 5782 5780 5778 5775 5773 5770 5767 5764 5761 5757 5753 5749 5745 5742 5737 5733 5729 5724 5719 5715 5710 5705 5700 5694 5688 5682 5678 5673 5667 5661 5656 5650 5643 5637 5631 5626 5620 5615 5609 5604 5600 5596
5773 5771 5769 5766 5763 5760 5757 5754 5750 5746 5742 5738 5734 5729 5725 5721 5716 5711 5706 5701 5697 5692 5688 5683 5677 5671 5665 5660 5656 5650 5644 5638 5632 5626 5620 5615 5609 5604 5598 5593 5588 5583 5579
5761 5758 5756 5753 5749 5746 5742 5739 5735 5731 5727 5722 5717 5713 5708 5704 5699 5694 5689 5684 5679 5674 5670 5666 5661 5655 5649 5644 5640 5635 5628 5622 5616 5611 5605 5600 5595 5589 5584 5579 5574 5570 5565
5748 5745 5742 5739 5735 5731 5727 5723 5719 5715 5711 5706 5701 5696 5691 5687 5682 5677 5672 5667 5663 5658 5653 5649 5644 5639 5634 5629 5625 5621 5616 5609 5603 5597 5592 5587 5582 5577 5572 5567 5562 5558 5553
5735 5731 5728 5724 5720 5716 5712 5707 5703 5699 5694 5689 5684 5679 5674 5669 5664 5660 5655 5651 5647 5642 5637 5633 5629 5625 5620 5616 5611 5607 5603 5598 5592 5587 5583 5576 5572 5567 5561 5557 5552 5547 5542
5722 5719 5714 5711 5706 5702 5697 5692 5688 5683 5678 5673 5668 5662 5657 5653 5648 5644 5640 5636 5632 5628 5624 5620 5616 5612 5609 5604 5600 5596 5593 5589 5585 5580 5575 5569 5563 5558 5553 5548 5543 5538 5533
5710 5705 5701 5697 5692 5687 5682 5677 5671 5667 5662 5657 5652 5647 5642 5638 5634 5630 5626 5622 5619 5616 5613 5610 5606 5603 5599 5595 5592 5588 5584 5580 5576 5573 5568 5563 5557 5551 5545 5540 5535 5529 5524
5697 5692 5688 5683 5678 5672 5667 5662 5656 5651 5647 5642 5638 5633 5629 5625 5622 5619 5616 5613 5610 5606 5604 5600 5598 5595 5592 5588 5585 5582 5579 5575 5570 5566 5562 5557 5551 5544 5538 5532 5526 5521 5515
5684 5680 5674 5669 5663 5658 5653 5648 5642 5638 5633 5629 5625 5621 5618 5615 5612 5610 5608 5604 5601 5599 5596 5594 5592 5589 5586 5583 5580 5577 5574 5570 5566 5561 5556 5550 5545 5539 5531 5524 5518 5512 5506
5673 5667 5662 5656 5651 5646 5640 5635 5630 5625 5621 5617 5614 5611 5609 5607 5605 5603 5601 5599 5596 5594 5592 5590 5588 5585 5583 5580 5577 5573 5570 5566 5561 5557 5551 5546 5540 5534 5527 5519 5512 5505 5498